RH
18 14 13 16 22 31 43 44 55 56 68 58 63 81 87 86 91 77 65 60 57 56 53 50 45 42 44 43 39 37 40 42 42 45 63 72 70 63 68 69 64 56 49 48
18 14 13 15 20 26 39 50 47 73 73 60 64 81 87 89 88 78 69 63 61 61 56 50 46 46 41 41 39 37 39 38 43 43 59 68 88 70 62 58 53 51 45 45
19 13 14 16 20 25 32 42 45 76 67 51 67 85 89 85 83 86 76 74 69 72 62 54 49 46 40 38 38 38 37 35 40 47 53 64 73 76 67 61 52 50 44 40
19 19 16 19 21 25 30 39 56 68 54 61 55 85 80 87 88 98 86 85 75 72 85 57 51 49 39 36 35 38 37 37 42 56 51 62 63 69 66 63 56 50 48 45
18 22 19 21 24 26 38 42 47 40 43 55 57 61 74 82 92 88 88 79 77 75 72 67 54 53 44 38 34 34 36 38 42 50 61 59 64 67 59 72 51 52 52 47
25 22 27 25 30 34 36 37 43 41 35 49 51 50 76 86 95 78 79 78 75 77 74 67 62 55 59 43 36 29 32 37 42 40 55 62 64 77 75 85 59 52 48 48
27 30 28 29 31 33 36 42 47 43 38 35 45 49 69 68 84 92 87 82 81 80 75 75 73 65 60 53 39 32 28 31 35 39 37 45 67 72 75 76 65 58 52 55
29 39 34 33 38 40 40 44 43 42 37 30 49 65 71 67 70 73 89 89 88 89 72 77 69 70 76 67 52 38 33 29 31 32 34 33 42 60 64 66 58 55 69 60
37 37 40 42 42 50 42 41 35 31 28 25 50 72 75 69 72 75 77 74 79 85 89 92 81 76 77 82 80 49 39 35 32 31 32 32 31 36 42 49 50 50 82 88
47 42 43 35 35 42 46 39 36 37 37 28 56 59 67 67 63 58 64 71 67 73 75 73 83 76 92 81 73 90 44 40 39 37 34 33 32 32 37 40 40 44 61 65
45 46 42 34 30 33 39 34 33 34 30 31 65 73 75 72 61 53 55 59 64 69 71 72 72 72 74 77 75 94 73 62 52 52 44 39 36 35 36 36 30 31 41 55
44 44 48 37 30 23 31 34 30 37 33 32 58 89 76 72 64 58 55 57 63 62 62 66 68 69 75 85 84 99 91 87 59 59 58 54 52 47 41 40 38 31 25 34
44 39 45 40 32 28 28 28 34 35 34 36 48 72 73 74 71 64 56 54 56 59 60 62 64 73 76 84 91 92 74 92 79 69 68 61 53 53 49 49 45 41 36 25
43 38 42 52 47 35 30 28 29 35 37 34 60 77 77 78 76 71 64 54 53 56 59 59 61 65 70 72 74 65 64 80 89 75 84 82 67 61 59 54 52 50 43 41
28 38 38 41 47 35 31 25 29 29 30 45 76 77 80 78 76 75 69 63 50 50 53 56 57 58 62 65 66 66 68 83 88 94 90 81 78 62 61 65 62 55 50 44
33 31 39 46 39 37 33 33 33 26 27 61 60 72 75 74 74 73 71 65 52 49 48 49 49 52 56 57 60 63 63 69 71 83 79 88 85 72 66 65 67 64 57 53
40 41 33 36 41 38 37 33 31 28 27 40 55 60 68 73 72 71 68 64 55 50 48 48 47 47 48 51 59 64 64 67 68 66 70 78 87 84 82 77 74 74 71 61
39 39 38 41 40 37 32 36 31 30 32 39 48 61 65 68 70 70 67 61 56 54 49 48 46 46 48 49 50 54 62 65 67 64 66 69 75 78 83 87 90 79 76 74
27 29 32 35 35 33 39 34 28 26 31 52 55 60 66 71 64 64 64 62 59 57 53 49 48 47 45 45 46 44 44 48 54 57 59 61 69 69 72 82 91 93 89 79
28 26 34 37 35 39 52 45 36 27 33 40 52 59 59 66 64 58 56 56 54 51 49 48 46 44 45 43 43 43 42 39 39 40 39 47 51 56 56 71 83 83 81 79
31 32 30 37 44 48 50 50 40 37 41 43 54 59 56 61 54 56 50 46 48 49 48 47 44 42 41 40 39 38 39 40 39 37 36 34 34 37 47 51 53 64 75 80
51 44 42 35 39 52 59 47 47 54 50 48 53 78 82 78 59 54 53 48 46 44 43 43 41 39 36 35 34 33 31 30 29 28 29 30 31 32 34 38 41 46 52 55
37 50 60 64 65 60 53 56 54 53 48 49 51 56 54 52 47 44 46 48 44 39 34 31 28 26 26 23 22 21 20 20 19 17 16 18 20 23 27 30 35 37 39 44
47 37 45 48 61 57 58 51 52 55 49 48 45 46 47 44 40 38 38 36 33 31 28 26 25 24 23 19 17 17 16 15 13 13 14 15 14 12 14 18 23 27 32 37
53 65 52 39 44 46 43 45 44 38 33 34 36 38 35 36 36 35 36 33 32 32 27 26 25 25 25 22 17 16 15 11 10 11 12 12 13 14 13 13 13 15 18 25
79 63 55 58 55 50 49 47 43 37 32 33 33 36 39 38 37 36 33 32 32 33 27 26 26 25 20 18 18 18 15 16 15 14 14 14 13 13 13 14 15 17 20 21